Time,TemperatureF,DewpointF,PressureIn,WindDirection,WindDirectionDegrees,WindSpeedMPH,WindSpeedGustMPH,Humidity,HourlyPrecipIn,Conditions,Clouds,dailyrainin,SoftwareType,DateUTC
2014-01-19 00:00:00,33.7,23.2,29.66,SSW,195,0.0,0.0,65,17.80,,---,0.00,VWS V13.01,2014-01-19 05:00:00,
2014-01-19 00:01:00,27.2,18.7,29.84,WSW,240,6.9,11.0,70,17.80,,---,0.00,VWS V13.01,2014-01-19 05:01:00,
2014-01-19 00:02:00,33.5,23.1,29.66,SSW,195,0.0,0.0,65,17.80,,---,0.00,VWS V13.01,2014-01-19 05:02:00,
2014-01-19 00:03:00,33.6,23.2,29.66,SSW,195,0.0,0.0,65,17.80,,---,0.00,VWS V13.01,2014-01-19 05:03:00,
2014-01-19 00:04:00,33.4,23.0,29.66,South,184,0.0,3.2,65,17.80,,---,0.00,VWS V13.01,2014-01-19 05:04:00,
2014-01-19 00:05:00,33.4,23.1,29.66,South,184,0.0,0.0,65,17.80,,---,0.00,VWS V13.01,2014-01-19 05:05:00,
2014-01-19 00:06:00,27.2,18.6,29.84,SSW,202,0.0,4.3,70,17.80,,---,0.00,VWS V13.01,2014-01-19 05:06:00,
2014-01-19 00:07:00,33.3,23.0,29.66,South,184,0.0,0.0,66,17.80,,---,0.00,VWS V13.01,2014-01-19 05:07:00,
2014-01-19 00:08:00,33.2,23.0,29.66,South,184,0.0,0.0,66,17.80,,---,0.00,VWS V13.01,2014-01-19 05:08:00,
2014-01-19 00:09:00,33.1,23.0,29.66,South,184,0.0,0.0,66,17.80,,---,0.00,VWS V13.01,2014-01-19 05:09:00,
2014-01-19 00:10:00,33.0,22.9,29.66,South,184,0.0,0.0,66,17.80,,---,0.00,VWS V13.01,2014-01-19 05:10:00,
2014-01-19 00:11:00,27.2,18.7,29.83,WSW,253,7.5,10.5,70,17.80,,---,0.00,VWS V13.01,2014-01-19 05:11:00,
2014-01-19 00:12:00,33.0,22.9,29.66,South,184,0.0,0.0,66,17.80,,---,0.00,VWS V13.01,2014-01-19 05:12:00,
2014-01-19 00:13:00,32.9,22.8,29.66,South,184,0.0,0.0,66,17.80,,---,0.00,VWS V13.01,2014-01-19 05:13:00,
2014-01-19 00:14:00,33.0,23.0,29.66,South,184,0.0,0.0,66,17.80,,---,0.00,VWS V13.01,2014-01-19 05:14:00,
2014-01-19 00:15:00,33.0,23.0,29.66,South,184,0.0,0.0,66,17.80,,---,0.00,VWS V13.01,2014-01-19 05:15:00,
2014-01-19 00:16:00,27.2,18.7,29.82,SW,228,0.0,0.0,70,17.80,,---,0.00,VWS V13.01,2014-01-19 05:16:00,
2014-01-19 00:17:00,32.8,22.8,29.66,South,184,0.0,0.0,66,17.80,,---,0.00,VWS V13.01,2014-01-19 05:17:00,
2014-01-19 00:18:00,32.8,22.9,29.66,South,184,0.0,0.0,66,17.80,,---,0.00,VWS V13.01,2014-01-19 05:18:00,
2014-01-19 00:19:00,32.7,22.8,29.66,South,184,0.0,0.0,66,17.80,,---,0.00,VWS V13.01,2014-01-19 05:19:00,
2014-01-19 00:20:00,32.7,22.8,29.66,South,184,0.0,0.0,66,17.80,,---,0.00,VWS V13.01,2014-01-19 05:20:00,
2014-01-19 00:21:00,27.0,18.5,29.82,WSW,255,0.0,0.0,70,17.80,,---,0.00,VWS V13.01,2014-01-19 05:21:00,
2014-01-19 00:22:00,32.7,22.9,29.66,South,184,0.0,0.0,67,17.80,,---,0.00,VWS V13.01,2014-01-19 05:22:00,
2014-01-19 00:23:00,32.6,22.8,29.66,South,184,0.0,0.0,67,17.80,,---,0.00,VWS V13.01,2014-01-19 05:23:00,
2014-01-19 00:24:00,32.5,22.7,29.66,South,184,0.0,0.0,67,17.80,,---,0.00,VWS V13.01,2014-01-19 05:24:00,
2014-01-19 00:25:00,32.5,22.7,29.66,South,184,0.0,0.0,67,17.80,,---,0.00,VWS V13.01,2014-01-19 05:25:00,
2014-01-19 00:26:00,26.9,18.4,29.83,WSW,255,0.0,0.0,70,17.80,,---,0.00,VWS V13.01,2014-01-19 05:26:00,
2014-01-19 00:27:00,32.5,22.7,29.66,South,184,0.0,0.0,67,17.80,,---,0.00,VWS V13.01,2014-01-19 05:27:00,
2014-01-19 00:28:00,32.4,22.7,29.66,South,184,0.0,0.0,67,17.80,,---,0.00,VWS V13.01,2014-01-19 05:28:00,
2014-01-19 00:29:00,32.2,22.5,29.66,South,184,0.0,0.0,67,17.80,,---,0.00,VWS V13.01,2014-01-19 05:29:00,
2014-01-19 00:30:00,32.2,22.7,29.66,South,184,0.0,0.0,68,17.80,,---,0.00,VWS V13.01,2014-01-19 05:30:00,
2014-01-19 00:31:00,26.9,18.4,29.82,WSW,248,0.0,0.0,70,17.80,,---,0.00,VWS V13.01,2014-01-19 05:31:00,
2014-01-19 00:32:00,32.1,22.6,29.65,South,184,0.0,0.0,68,17.80,,---,0.00,VWS V13.01,2014-01-19 05:32:00,
2014-01-19 00:33:00,32.1,22.7,29.65,South,184,0.0,0.0,68,17.80,,---,0.00,VWS V13.01,2014-01-19 05:33:00,
2014-01-19 00:34:00,32.1,22.7,29.65,South,184,0.0,0.0,68,17.80,,---,0.00,VWS V13.01,2014-01-19 05:34:00,
2014-01-19 00:35:00,32.1,22.7,29.66,South,184,0.0,0.0,68,17.80,,---,0.00,VWS V13.01,2014-01-19 05:35:00,
2014-01-19 00:36:00,26.8,18.3,29.82,SW,231,0.0,0.0,70,17.80,,---,0.00,VWS V13.01,2014-01-19 05:36:00,
2014-01-19 00:37:00,32.0,22.8,29.65,South,184,0.0,0.0,68,17.80,,---,0.00,VWS V13.01,2014-01-19 05:37:00,
2014-01-19 00:38:00,31.9,22.7,29.66,South,184,0.0,0.0,68,17.80,,---,0.00,VWS V13.01,2014-01-19 05:38:00,
2014-01-19 00:39:00,31.9,22.7,29.65,South,184,0.0,0.0,68,17.80,,---,0.00,VWS V13.01,2014-01-19 05:39:00,
2014-01-19 00:40:00,31.8,22.6,29.65,South,184,0.0,0.0,68,17.80,,---,0.00,VWS V13.01,2014-01-19 05:40:00,
2014-01-19 00:41:00,26.7,18.4,29.82,SE,129,0.0,0.0,70,17.80,,---,0.00,VWS V13.01,2014-01-19 05:41:00,
2014-01-19 00:42:00,31.9,22.8,29.66,South,184,0.0,0.0,69,17.80,,---,0.00,VWS V13.01,2014-01-19 05:42:00,
2014-01-19 00:43:00,31.7,22.6,29.66,South,184,0.0,0.0,69,17.80,,---,0.00,VWS V13.01,2014-01-19 05:43:00,
2014-01-19 00:44:00,31.7,22.6,29.65,South,184,0.0,0.0,69,17.80,,---,0.00,VWS V13.01,2014-01-19 05:44:00,
2014-01-19 00:45:00,31.6,22.6,29.66,South,184,0.0,0.0,69,17.80,,---,0.00,VWS V13.01,2014-01-19 05:45:00,
2014-01-19 00:46:00,26.7,18.4,29.82,North,4,3.2,5.9,70,17.80,,---,0.00,VWS V13.01,2014-01-19 05:46:00,
2014-01-19 00:47:00,31.6,22.7,29.65,South,184,0.0,0.0,69,17.80,,---,0.00,VWS V13.01,2014-01-19 05:47:00,
2014-01-19 00:48:00,31.5,22.6,29.66,South,184,0.0,0.0,69,17.80,,---,0.00,VWS V13.01,2014-01-19 05:48:00,
2014-01-19 00:49:00,31.6,22.8,29.66,South,184,0.0,0.0,70,17.80,,---,0.00,VWS V13.01,2014-01-19 05:49:00,
2014-01-19 00:50:00,31.5,22.7,29.66,South,184,0.0,0.0,70,17.80,,---,0.00,VWS V13.01,2014-01-19 05:50:00,
2014-01-19 00:51:00,26.7,18.3,29.82,NW,326,0.0,0.0,70,17.80,,---,0.00,VWS V13.01,2014-01-19 05:51:00,
2014-01-19 00:52:00,31.4,22.7,29.66,South,184,0.0,0.0,70,17.80,,---,0.00,VWS V13.01,2014-01-19 05:52:00,
2014-01-19 00:53:00,31.4,22.7,29.66,South,184,0.0,0.0,70,17.80,,---,0.00,VWS V13.01,2014-01-19 05:53:00,
2014-01-19 00:54:00,31.3,22.6,29.65,South,184,0.0,0.0,70,17.80,,---,0.00,VWS V13.01,2014-01-19 05:54:00,
2014-01-19 00:55:00,31.2,22.6,29.66,South,184,0.0,0.0,70,17.80,,---,0.00,VWS V13.01,2014-01-19 05:55:00,
2014-01-19 00:56:00,26.5,18.0,29.81,NW,326,0.0,0.0,70,17.80,,---,0.00,VWS V13.01,2014-01-19 05:56:00,
2014-01-19 00:57:00,31.1,22.6,29.66,South,184,0.0,0.0,70,17.80,,---,0.00,VWS V13.01,2014-01-19 05:57:00,
2014-01-19 00:58:00,31.1,22.7,29.66,South,184,0.0,0.0,71,17.80,,---,0.00,VWS V13.01,2014-01-19 05:58:00,
2014-01-19 00:59:00,31.2,22.8,29.65,SSW,212,4.3,5.4,71,17.80,,---,0.00,VWS V13.01,2014-01-19 05:59:00,
2014-01-19 01:00:00,31.2,22.6,29.65,SSW,193,3.5,6.2,70,17.80,,---,0.00,VWS V13.01,2014-01-19 06:00:00,
2014-01-19 01:01:00,26.4,17.9,29.81,NNE,21,0.0,3.5,70,17.80,,---,0.00,VWS V13.01,2014-01-19 06:01:00,
2014-01-19 01:02:00,31.3,22.7,29.65,WSW,252,0.0,0.0,70,17.80,,---,0.00,VWS V13.01,2014-01-19 06:02:00,
2014-01-19 01:03:00,31.3,22.7,29.66,WSW,252,0.0,0.0,70,17.80,,---,0.00,VWS V13.01,2014-01-19 06:03:00,
2014-01-19 01:04:00,31.3,22.7,29.65,WSW,252,0.0,0.0,70,17.80,,---,0.00,VWS V13.01,2014-01-19 06:04:00,
2014-01-19 01:05:00,31.3,22.7,29.65,WSW,252,0.0,0.0,70,17.80,,---,0.00,VWS V13.01,2014-01-19 06:05:00,
2014-01-19 01:06:00,26.3,17.9,29.81,NW,326,0.0,0.0,70,17.80,,---,0.00,VWS V13.01,2014-01-19 06:06:00,
2014-01-19 01:11:00,26.1,17.5,29.81,NW,326,0.0,0.0,70,17.80,,---,0.00,VWS V13.01,2014-01-19 06:11:00,
2014-01-19 01:16:00,26.0,17.4,29.81,WNW,291,0.0,5.9,69,17.80,,---,0.00,VWS V13.01,2014-01-19 06:16:00,
2014-01-19 01:21:00,26.0,17.4,29.81,NNW,332,0.0,2.4,70,17.80,,---,0.00,VWS V13.01,2014-01-19 06:21:00,
2014-01-19 01:26:00,26.0,17.4,29.81,SSW,197,5.3,7.6,69,17.80,,---,0.00,VWS V13.01,2014-01-19 06:26:00,
2014-01-19 01:31:00,25.9,17.3,29.81,SW,226,5.6,7.5,69,17.80,,---,0.00,VWS V13.01,2014-01-19 06:31:00,
2014-01-19 01:36:00,25.8,17.2,29.82,WSW,240,0.0,0.0,69,17.80,,---,0.00,VWS V13.01,2014-01-19 06:36:00,
2014-01-19 01:41:00,25.8,17.1,29.82,WSW,240,0.0,0.0,69,17.80,,---,0.00,VWS V13.01,2014-01-19 06:41:00,
2014-01-19 01:46:00,25.9,17.1,29.82,SSW,212,0.0,0.0,69,17.80,,---,0.00,VWS V13.01,2014-01-19 06:46:00,
2014-01-19 01:51:00,25.9,17.2,29.82,SSW,212,0.0,0.0,69,17.80,,---,0.00,VWS V13.01,2014-01-19 06:51:00,
2014-01-19 01:56:00,25.8,17.0,29.82,SSW,212,0.0,0.0,69,17.80,,---,0.00,VWS V13.01,2014-01-19 06:56:00,
2014-01-19 02:01:00,25.8,17.0,29.83,SSW,212,0.0,0.0,69,17.80,,---,0.00,VWS V13.01,2014-01-19 07:01:00,
2014-01-19 02:06:00,25.7,16.9,29.83,West,262,0.0,0.0,69,17.80,,---,0.00,VWS V13.01,2014-01-19 07:06:00,
2014-01-19 02:11:00,25.7,16.8,29.84,West,270,5.4,6.0,69,17.80,,---,0.00,VWS V13.01,2014-01-19 07:11:00,
2014-01-19 02:16:00,25.7,16.9,29.83,SW,231,0.0,0.0,69,17.80,,---,0.00,VWS V13.01,2014-01-19 07:16:00,
2014-01-19 02:21:00,25.4,16.6,29.84,WNW,290,0.0,4.6,69,17.80,,---,0.00,VWS V13.01,2014-01-19 07:21:00,
2014-01-19 02:26:00,25.6,16.7,29.84,WSW,242,6.3,6.3,69,17.80,,---,0.00,VWS V13.01,2014-01-19 07:26:00,
2014-01-19 02:31:00,25.5,16.6,29.84,West,270,6.5,6.7,69,17.80,,---,0.00,VWS V13.01,2014-01-19 07:31:00,
2014-01-19 02:36:00,25.6,16.7,29.84,SSW,210,0.0,0.0,68,17.80,,---,0.00,VWS V13.01,2014-01-19 07:36:00,
2014-01-19 02:41:00,25.7,16.9,29.84,West,269,0.0,0.0,69,17.80,,---,0.00,VWS V13.01,2014-01-19 07:41:00,
2014-01-19 02:46:00,25.7,16.8,29.83,SW,233,6.3,6.5,69,17.80,,---,0.00,VWS V13.01,2014-01-19 07:46:00,
2014-01-19 02:51:00,25.7,16.8,29.83,WSW,242,0.0,0.0,68,17.80,,---,0.00,VWS V13.01,2014-01-19 07:51:00,
2014-01-19 02:56:00,25.6,16.7,29.83,West,269,4.8,6.7,68,17.80,,---,0.00,VWS V13.01,2014-01-19 07:56:00,
2014-01-19 03:01:00,25.8,16.9,29.83,West,263,0.0,0.0,68,17.80,,---,0.00,VWS V13.01,2014-01-19 08:01:00,
2014-01-19 03:06:00,25.7,16.6,29.83,WSW,250,2.9,6.2,68,17.80,,---,0.00,VWS V13.01,2014-01-19 08:06:00,
2014-01-19 03:11:00,25.9,16.8,29.82,West,278,0.0,0.0,68,17.80,,---,0.00,VWS V13.01,2014-01-19 08:11:00,
2014-01-19 03:16:00,25.9,17.0,29.82,West,278,0.0,0.0,69,17.80,,---,0.00,VWS V13.01,2014-01-19 08:16:00,
2014-01-19 03:21:00,25.9,17.0,29.82,South,172,0.0,0.0,69,17.80,,---,0.00,VWS V13.01,2014-01-19 08:21:00,
2014-01-19 03:26:00,25.9,16.9,29.82,West,264,0.0,0.0,68,17.80,,---,0.00,VWS V13.01,2014-01-19 08:26:00,
2014-01-19 03:31:00,25.8,17.0,29.82,West,266,6.2,6.2,69,17.80,,---,0.00,VWS V13.01,2014-01-19 08:31:00,
2014-01-19 03:36:00,25.8,16.8,29.82,WSW,255,0.0,0.0,68,17.80,,---,0.00,VWS V13.01,2014-01-19 08:36:00,
2014-01-19 03:41:00,25.8,16.8,29.82,WNW,294,4.7,7.8,68,17.80,,---,0.00,VWS V13.01,2014-01-19 08:41:00,
2014-01-19 03:46:00,25.9,16.9,29.82,WSW,253,5.7,6.2,68,17.80,,---,0.00,VWS V13.01,2014-01-19 08:46:00,
2014-01-19 03:51:00,25.9,16.9,29.82,WSW,257,6.5,7.3,68,17.80,,---,0.00,VWS V13.01,2014-01-19 08:51:00,
2014-01-19 03:56:00,26.0,17.0,29.82,WNW,291,9.2,9.6,68,17.80,,---,0.00,VWS V13.01,2014-01-19 08:56:00,
2014-01-19 04:01:00,25.9,16.7,29.82,SW,232,4.4,8.0,68,17.80,,---,0.00,VWS V13.01,2014-01-19 09:01:00,
2014-01-19 04:06:00,26.0,16.8,29.81,NW,308,0.0,0.0,68,17.80,,---,0.00,VWS V13.01,2014-01-19 09:06:00,
2014-01-19 04:11:00,25.9,16.6,29.81,NW,309,0.0,4.5,68,17.80,,---,0.00,VWS V13.01,2014-01-19 09:11:00,
2014-01-19 04:16:00,26.0,16.7,29.81,West,264,0.0,0.0,67,17.80,,---,0.00,VWS V13.01,2014-01-19 09:16:00,
2014-01-19 04:21:00,26.1,16.8,29.81,NW,326,0.0,4.8,68,17.80,,---,0.00,VWS V13.01,2014-01-19 09:21:00,
2014-01-19 04:26:00,26.0,16.6,29.81,WSW,242,6.8,7.5,67,17.80,,---,0.00,VWS V13.01,2014-01-19 09:26:00,
2014-01-19 04:31:00,26.0,16.5,29.82,West,271,9.5,9.5,67,17.80,,---,0.00,VWS V13.01,2014-01-19 09:31:00,
2014-01-19 04:36:00,26.0,16.5,29.82,West,267,2.9,6.5,67,17.80,,---,0.00,VWS V13.01,2014-01-19 09:36:00,
2014-01-19 04:41:00,25.8,16.4,29.81,WSW,242,8.6,9.4,67,17.80,,---,0.00,VWS V13.01,2014-01-19 09:41:00,
2014-01-19 04:46:00,26.0,16.6,29.81,West,263,0.0,0.0,67,17.80,,---,0.00,VWS V13.01,2014-01-19 09:46:00,
2014-01-19 04:51:00,26.0,16.7,29.82,West,281,5.2,9.4,67,17.80,,---,0.00,VWS V13.01,2014-01-19 09:51:00,
2014-01-19 04:56:00,26.2,16.7,29.82,NNW,332,2.9,6.7,67,17.80,,---,0.00,VWS V13.01,2014-01-19 09:56:00,
2014-01-19 05:01:00,26.3,17.0,29.82,North,356,0.0,0.0,67,17.80,,---,0.00,VWS V13.01,2014-01-19 10:01:00,
2014-01-19 05:06:00,26.3,17.0,29.82,SW,236,0.0,0.0,67,17.80,,---,0.00,VWS V13.01,2014-01-19 10:06:00,
2014-01-19 05:11:00,26.2,16.8,29.82,SW,229,3.3,5.8,67,17.80,,---,0.00,VWS V13.01,2014-01-19 10:11:00,
2014-01-19 05:16:00,26.1,16.6,29.81,WSW,238,0.0,6.0,67,17.80,,---,0.00,VWS V13.01,2014-01-19 10:16:00,
2014-01-19 05:20:00,26.2,16.9,29.81,WSW,238,0.0,0.0,67,17.80,,---,0.00,VWS V13.01,2014-01-19 10:20:00,
2014-01-19 05:25:00,26.2,16.9,29.82,WSW,238,0.0,0.0,67,17.80,,---,0.00,VWS V13.01,2014-01-19 10:25:00,
2014-01-19 05:30:00,26.1,16.8,29.81,WSW,238,0.0,0.0,67,17.80,,---,0.00,VWS V13.01,2014-01-19 10:30:00,
2014-01-19 05:35:00,26.1,17.0,29.81,WSW,238,0.0,0.0,68,17.80,,---,0.00,VWS V13.01,2014-01-19 10:35:00,
2014-01-19 05:40:00,26.1,17.1,29.81,WSW,238,0.0,0.0,68,17.80,,---,0.00,VWS V13.01,2014-01-19 10:40:00,
2014-01-19 05:45:00,26.2,17.2,29.81,WSW,238,0.0,0.0,68,17.80,,---,0.00,VWS V13.01,2014-01-19 10:45:00,
2014-01-19 05:50:00,26.1,16.9,29.81,SW,233,0.0,3.4,68,17.80,,---,0.00,VWS V13.01,2014-01-19 10:50:00,
2014-01-19 05:55:00,26.2,17.0,29.81,SW,233,0.0,0.0,68,17.80,,---,0.00,VWS V13.01,2014-01-19 10:55:00,
2014-01-19 06:01:00,25.9,16.5,29.81,WSW,243,3.4,5.6,67,17.80,,---,0.00,VWS V13.01,2014-01-19 11:01:00,
2014-01-19 06:06:00,25.8,16.6,29.81,WSW,246,0.0,0.0,68,17.80,,---,0.00,VWS V13.01,2014-01-19 11:06:00,
2014-01-19 06:11:00,25.9,16.6,29.80,SW,229,0.0,5.7,67,17.80,,---,0.00,VWS V13.01,2014-01-19 11:11:00,
2014-01-19 06:16:00,25.8,16.5,29.80,WSW,248,5.2,10.9,67,17.80,,---,0.00,VWS V13.01,2014-01-19 11:16:00,
2014-01-19 06:21:00,25.8,16.6,29.81,WNW,283,4.3,5.8,68,17.80,,---,0.00,VWS V13.01,2014-01-19 11:21:00,
2014-01-19 06:26:00,25.7,16.5,29.81,SW,232,2.2,4.5,68,17.80,,---,0.00,VWS V13.01,2014-01-19 11:26:00,
2014-01-19 06:31:00,25.9,16.8,29.81,West,274,0.0,0.0,68,17.80,,---,0.00,VWS V13.01,2014-01-19 11:31:00,
2014-01-19 06:36:00,25.8,17.1,29.81,WSW,249,4.5,6.9,69,17.80,,---,0.00,VWS V13.01,2014-01-19 11:36:00,
2014-01-19 06:41:00,25.7,16.9,29.81,WSW,243,6.9,8.3,69,17.80,,---,0.00,VWS V13.01,2014-01-19 11:41:00,
2014-01-19 06:46:00,25.4,16.6,29.81,West,260,5.6,8.7,69,17.80,,---,0.00,VWS V13.01,2014-01-19 11:46:00,
2014-01-19 06:51:00,25.1,16.2,29.81,SW,232,9.4,10.4,68,17.80,,---,0.00,VWS V13.01,2014-01-19 11:51:00,
2014-01-19 06:56:00,25.0,16.0,29.82,WSW,255,6.2,10.0,68,17.80,,---,0.00,VWS V13.01,2014-01-19 11:56:00,
2014-01-19 07:01:00,25.0,16.0,29.81,SW,229,3.0,5.5,68,17.80,,---,0.00,VWS V13.01,2014-01-19 12:01:00,
2014-01-19 07:06:00,25.1,16.3,29.82,WSW,255,5.3,5.3,69,17.80,,---,0.00,VWS V13.01,2014-01-19 12:06:00,
2014-01-19 07:11:00,25.1,16.3,29.81,West,267,7.1,7.5,69,17.80,,---,0.00,VWS V13.01,2014-01-19 12:11:00,
2014-01-19 07:16:00,24.9,16.1,29.80,West,280,0.0,0.0,69,17.80,,---,0.00,VWS V13.01,2014-01-19 12:16:00,
2014-01-19 07:21:00,24.8,16.3,29.81,SW,228,7.2,7.6,70,17.80,,---,0.00,VWS V13.01,2014-01-19 12:21:00,
2014-01-19 07:26:00,24.5,15.9,29.81,SW,236,4.7,9.1,69,17.80,,---,0.00,VWS V13.01,2014-01-19 12:26:00,
2014-01-19 07:31:00,24.5,15.9,29.81,WSW,257,6.9,7.8,69,17.80,,---,0.00,VWS V13.01,2014-01-19 12:31:00,
2014-01-19 07:36:00,24.5,16.0,29.81,WSW,239,4.4,5.3,70,17.80,,---,0.00,VWS V13.01,2014-01-19 12:36:00,
2014-01-19 07:41:00,24.5,16.3,29.80,SSW,194,7.4,8.5,71,17.80,,---,0.00,VWS V13.01,2014-01-19 12:41:00,
2014-01-19 07:46:00,24.4,16.1,29.81,WSW,242,8.5,9.3,70,17.80,,---,0.00,VWS V13.01,2014-01-19 12:46:00,
2014-01-19 07:51:00,24.3,16.1,29.81,SSW,212,5.2,8.7,70,17.80,,---,0.00,VWS V13.01,2014-01-19 12:51:00,
2014-01-19 07:56:00,24.3,15.9,29.81,SW,215,0.0,6.3,70,17.80,,---,0.00,VWS V13.01,2014-01-19 12:56:00,
2014-01-19 08:01:00,24.2,15.9,29.80,SSW,200,4.1,8.1,70,17.80,,---,0.00,VWS V13.01,2014-01-19 13:01:00,
2014-01-19 08:06:00,24.2,16.0,29.81,SW,217,4.8,7.0,70,17.80,,---,0.00,VWS V13.01,2014-01-19 13:06:00,
2014-01-19 08:11:00,24.2,16.0,29.81,WSW,242,8.8,9.2,70,17.80,,---,0.00,VWS V13.01,2014-01-19 13:11:00,
2014-01-19 08:16:00,24.1,16.0,29.81,SW,219,11.7,11.8,71,17.80,,---,0.00,VWS V13.01,2014-01-19 13:16:00,
2014-01-19 08:21:00,24.2,15.8,29.81,SSW,193,7.6,10.4,70,17.80,,---,0.00,VWS V13.01,2014-01-19 13:21:00,
2014-01-19 08:26:00,24.2,15.8,29.81,SW,222,9.9,9.9,70,17.80,,---,0.00,VWS V13.01,2014-01-19 13:26:00,
2014-01-19 08:31:00,24.3,15.7,29.81,WSW,240,10.3,10.3,69,17.80,,---,0.00,VWS V13.01,2014-01-19 13:31:00,
2014-01-19 08:36:00,24.4,15.6,29.82,South,176,6.5,7.4,69,17.80,,---,0.00,VWS V13.01,2014-01-19 13:36:00,
2014-01-19 08:41:00,24.2,15.2,29.81,SW,224,11.7,12.1,68,17.80,,---,0.00,VWS V13.01,2014-01-19 13:41:00,
2014-01-19 08:46:00,24.2,15.6,29.81,SW,219,9.6,12.0,69,17.80,,---,0.00,VWS V13.01,2014-01-19 13:46:00,
2014-01-19 08:51:00,24.0,15.0,29.82,WSW,256,8.5,9.5,68,17.80,,---,0.00,VWS V13.01,2014-01-19 13:51:00,
2014-01-19 08:56:00,24.3,15.4,29.81,WNW,288,9.9,10.7,68,17.80,,---,0.00,VWS V13.01,2014-01-19 13:56:00,
2014-01-19 09:01:00,24.6,15.9,29.81,SW,221,7.3,8.5,69,17.80,,---,0.00,VWS V13.01,2014-01-19 14:01:00,
2014-01-19 09:06:00,24.2,15.0,29.81,West,273,0.0,7.0,68,17.80,,---,0.00,VWS V13.01,2014-01-19 14:06:00,
2014-01-19 09:11:00,24.4,15.7,29.81,WSW,255,5.8,6.0,69,17.80,,---,0.00,VWS V13.01,2014-01-19 14:11:00,
2014-01-19 09:16:00,24.3,15.3,29.81,West,260,3.4,6.3,68,17.80,,---,0.00,VWS V13.01,2014-01-19 14:16:00,
2014-01-19 09:21:00,24.6,15.6,29.81,SW,232,8.6,11.6,68,17.80,,---,0.00,VWS V13.01,2014-01-19 14:21:00,
2014-01-19 09:26:00,24.7,15.7,29.81,SW,222,6.5,7.4,68,17.80,,---,0.00,VWS V13.01,2014-01-19 14:26:00,
2014-01-19 09:31:00,24.8,15.5,29.81,SW,231,10.5,10.7,67,17.80,,---,0.00,VWS V13.01,2014-01-19 14:31:00,
2014-01-19 09:36:00,25.0,15.7,29.81,SSW,211,6.2,6.8,67,17.80,,---,0.00,VWS V13.01,2014-01-19 14:36:00,
2014-01-19 09:41:00,25.1,15.6,29.82,SSW,198,2.6,2.7,67,17.80,,---,0.00,VWS V13.01,2014-01-19 14:41:00,
2014-01-19 09:46:00,24.8,15.0,29.81,SW,218,5.5,9.6,66,17.80,,---,0.00,VWS V13.01,2014-01-19 14:46:00,
2014-01-19 09:51:00,25.0,15.6,29.81,SSW,195,8.4,8.4,67,17.80,,---,0.00,VWS V13.01,2014-01-19 14:51:00,
2014-01-19 09:56:00,25.4,15.4,29.81,South,169,5.9,5.9,65,17.80,,---,0.00,VWS V13.01,2014-01-19 14:56:00,
2014-01-19 10:01:00,25.7,16.0,29.81,WSW,249,4.3,7.5,66,17.80,,---,0.00,VWS V13.01,2014-01-19 15:01:00,
2014-01-19 10:06:00,26.0,16.3,29.80,West,263,0.0,0.0,66,17.80,,---,0.00,VWS V13.01,2014-01-19 15:06:00,
2014-01-19 10:11:00,26.3,16.4,29.80,SW,221,5.5,6.4,66,17.80,,---,0.00,VWS V13.01,2014-01-19 15:11:00,
2014-01-19 10:16:00,26.3,16.0,29.80,WSW,253,6.8,7.7,64,17.80,,---,0.00,VWS V13.01,2014-01-19 15:16:00,
2014-01-19 10:21:00,26.4,16.1,29.80,WSW,242,0.0,5.7,64,17.80,,---,0.00,VWS V13.01,2014-01-19 15:21:00,
2014-01-19 10:26:00,26.6,16.8,29.79,SW,224,3.1,5.5,66,17.80,,---,0.00,VWS V13.01,2014-01-19 15:26:00,
2014-01-19 10:31:00,26.5,16.1,29.79,WSW,250,5.7,5.7,64,17.80,,---,0.00,VWS V13.01,2014-01-19 15:31:00,
2014-01-19 10:36:00,26.7,16.5,29.79,WSW,255,6.0,9.9,65,17.80,,---,0.00,VWS V13.01,2014-01-19 15:36:00,
2014-01-19 10:41:00,26.8,16.3,29.79,SW,215,10.7,12.1,64,17.80,,---,0.00,VWS V13.01,2014-01-19 15:41:00,
2014-01-19 10:46:00,26.8,16.6,29.79,SW,224,8.1,10.4,65,17.80,,---,0.00,VWS V13.01,2014-01-19 15:46:00,
2014-01-19 10:51:00,26.7,16.1,29.79,SW,215,7.3,12.1,64,17.80,,---,0.00,VWS V13.01,2014-01-19 15:51:00,
2014-01-19 10:56:00,26.9,16.2,29.79,WSW,242,11.1,12.7,64,17.80,,---,0.00,VWS V13.01,2014-01-19 15:56:00,
2014-01-19 11:01:00,27.2,16.9,29.78,SW,215,8.1,10.9,65,17.80,,---,0.00,VWS V13.01,2014-01-19 16:01:00,
2014-01-19 11:06:00,27.4,16.6,29.78,SSW,198,11.2,13.6,63,17.80,,---,0.00,VWS V13.01,2014-01-19 16:06:00,
2014-01-19 11:11:00,27.6,17.0,29.78,WNW,287,6.1,10.4,64,17.80,,---,0.00,VWS V13.01,2014-01-19 16:11:00,
2014-01-19 11:16:00,27.4,16.6,29.77,SW,222,11.1,13.9,63,17.80,,---,0.00,VWS V13.01,2014-01-19 16:16:00,
2014-01-19 11:21:00,27.3,16.5,29.77,SSW,200,11.4,12.6,63,17.80,,---,0.00,VWS V13.01,2014-01-19 16:21:00,
2014-01-19 11:26:00,27.7,17.1,29.76,South,188,11.9,11.9,64,17.80,,---,0.00,VWS V13.01,2014-01-19 16:26:00,
2014-01-19 11:31:00,27.7,16.5,29.76,West,262,8.0,8.0,62,17.80,,---,0.00,VWS V13.01,2014-01-19 16:31:00,
2014-01-19 11:36:00,27.4,16.2,29.75,West,264,6.5,15.4,62,17.80,,---,0.00,VWS V13.01,2014-01-19 16:36:00,
2014-01-19 11:41:00,27.9,16.7,29.75,WSW,253,15.6,17.0,62,17.80,,---,0.00,VWS V13.01,2014-01-19 16:41:00,
2014-01-19 11:46:00,27.4,16.2,29.75,NW,308,0.0,13.6,62,17.80,,---,0.00,VWS V13.01,2014-01-19 16:46:00,
2014-01-19 11:51:00,27.7,16.6,29.75,WSW,253,7.0,9.1,63,17.80,,---,0.00,VWS V13.01,2014-01-19 16:51:00,
2014-01-19 11:56:00,27.9,16.7,29.74,SW,226,9.7,12.4,62,17.80,,---,0.00,VWS V13.01,2014-01-19 16:56:00,
2014-01-19 12:01:00,28.0,16.7,29.74,North,359,16.8,21.2,62,17.80,,---,0.00,VWS V13.01,2014-01-19 17:01:00,
2014-01-19 12:06:00,28.3,17.0,29.74,North,359,9.9,9.9,62,17.80,,---,0.00,VWS V13.01,2014-01-19 17:06:00,
2014-01-19 12:11:00,28.7,17.5,29.74,North,359,5.2,11.2,62,17.80,,---,0.00,VWS V13.01,2014-01-19 17:11:00,
2014-01-19 12:16:00,28.7,17.4,29.73,SW,235,12.2,13.3,62,17.80,,---,0.00,VWS V13.01,2014-01-19 17:16:00,
2014-01-19 12:21:00,28.5,17.2,29.73,West,274,7.2,11.7,62,17.80,,---,0.00,VWS V13.01,2014-01-19 17:21:00,
2014-01-19 12:26:00,28.8,17.6,29.72,West,260,5.3,6.3,62,17.80,,---,0.00,VWS V13.01,2014-01-19 17:26:00,
2014-01-19 12:31:00,29.4,17.4,29.72,SSW,205,7.7,17.5,60,17.80,,---,0.00,VWS V13.01,2014-01-19 17:31:00,
2014-01-19 12:36:00,29.5,17.4,29.71,SW,229,5.8,7.7,60,17.80,,---,0.00,VWS V13.01,2014-01-19 17:36:00,
2014-01-19 12:41:00,30.3,18.4,29.71,SW,229,15.6,16.8,61,17.80,,---,0.00,VWS V13.01,2014-01-19 17:41:00,
2014-01-19 12:46:00,30.4,18.0,29.71,West,271,6.3,13.6,60,17.80,,---,0.00,VWS V13.01,2014-01-19 17:46:00,
2014-01-19 12:51:00,30.6,18.0,29.70,SW,222,10.7,14.4,59,17.80,,---,0.00,VWS V13.01,2014-01-19 17:51:00,
2014-01-19 12:56:00,31.2,19.0,29.70,SW,232,7.6,8.0,60,17.80,,---,0.00,VWS V13.01,2014-01-19 17:56:00,
2014-01-19 13:01:00,31.5,18.6,29.69,WSW,250,3.5,8.8,58,17.80,,---,0.00,VWS V13.01,2014-01-19 18:01:00,
2014-01-19 13:06:00,31.8,18.3,29.69,West,260,7.6,13.8,57,17.80,,---,0.00,VWS V13.01,2014-01-19 18:06:00,
2014-01-19 13:11:00,32.2,19.5,29.69,SW,221,9.9,13.7,59,17.80,,---,0.00,VWS V13.01,2014-01-19 18:11:00,
2014-01-19 13:16:00,31.8,19.2,29.68,WSW,243,10.3,15.6,59,17.80,,---,0.00,VWS V13.01,2014-01-19 18:16:00,
2014-01-19 13:21:00,31.8,19.0,29.68,North,359,0.0,14.8,59,17.80,,---,0.00,VWS V13.01,2014-01-19 18:21:00,
2014-01-19 13:26:00,32.4,19.8,29.67,SW,217,14.9,14.9,59,17.80,,---,0.00,VWS V13.01,2014-01-19 18:26:00,
2014-01-19 13:31:00,32.9,19.8,29.67,SW,215,3.4,8.8,58,17.80,,---,0.00,VWS V13.01,2014-01-19 18:31:00,
2014-01-19 13:36:00,33.0,19.2,29.67,SW,236,11.4,12.7,56,17.80,,---,0.00,VWS V13.01,2014-01-19 18:36:00,
2014-01-19 13:41:00,33.2,19.5,29.67,West,262,2.3,12.1,57,17.80,,---,0.00,VWS V13.01,2014-01-19 18:41:00,
2014-01-19 13:45:00,33.2,19.2,29.67,WSW,248,15.2,15.2,56,17.80,,---,0.00,VWS V13.01,2014-01-19 18:45:00,
2014-01-19 13:50:00,32.7,18.8,29.67,WSW,252,9.6,14.4,56,17.80,,---,0.00,VWS V13.01,2014-01-19 18:50:00,
2014-01-19 13:55:00,32.2,18.7,29.67,West,259,9.4,12.3,57,17.80,,---,0.00,VWS V13.01,2014-01-19 18:55:00,
2014-01-19 14:00:00,32.6,20.3,29.67,North,359,0.0,5.8,60,17.80,,---,0.00,VWS V13.01,2014-01-19 19:00:00,
2014-01-19 14:05:00,33.1,19.5,29.67,North,359,1.7,12.4,57,17.80,,---,0.00,VWS V13.01,2014-01-19 19:05:00,
2014-01-19 14:10:00,33.3,19.7,29.68,North,359,0.0,0.0,57,17.80,,---,0.00,VWS V13.01,2014-01-19 19:10:00,
2014-01-19 14:15:00,34.2,19.9,29.67,North,359,0.0,10.9,55,17.80,,---,0.00,VWS V13.01,2014-01-19 19:15:00,
2014-01-19 14:20:00,34.1,19.7,29.67,West,263,15.3,20.1,55,17.80,,---,0.00,VWS V13.01,2014-01-19 19:20:00,
2014-01-19 14:25:00,34.6,20.5,29.67,North,359,2.9,4.3,56,17.80,,---,0.00,VWS V13.01,2014-01-19 19:25:00,
2014-01-19 14:30:00,34.7,20.4,29.67,North,359,0.0,7.6,56,17.80,,---,0.00,VWS V13.01,2014-01-19 19:30:00,
2014-01-19 14:35:00,34.2,19.9,29.67,North,359,0.0,10.4,56,17.80,,---,0.00,VWS V13.01,2014-01-19 19:35:00,
2014-01-19 14:40:00,34.2,20.5,29.67,WSW,239,0.0,15.8,57,17.80,,---,0.00,VWS V13.01,2014-01-19 19:40:00,
2014-01-19 14:45:00,34.6,20.3,29.66,North,359,0.0,0.0,56,17.80,,---,0.00,VWS V13.01,2014-01-19 19:45:00,
2014-01-19 14:50:00,34.8,21.1,29.66,SW,233,0.0,10.3,57,17.80,,---,0.00,VWS V13.01,2014-01-19 19:50:00,
2014-01-19 14:55:00,34.7,20.7,29.66,North,359,0.0,7.1,56,17.80,,---,0.00,VWS V13.01,2014-01-19 19:55:00,
2014-01-19 15:00:00,34.7,21.0,29.66,North,359,2.2,14.4,57,17.80,,---,0.00,VWS V13.01,2014-01-19 20:00:00,
2014-01-19 15:05:00,34.9,21.3,29.66,North,359,0.0,9.1,57,17.80,,---,0.00,VWS V13.01,2014-01-19 20:05:00,
2014-01-19 15:10:00,34.9,21.0,29.66,North,359,0.0,0.0,56,17.80,,---,0.00,VWS V13.01,2014-01-19 20:10:00,
2014-01-19 15:15:00,34.9,20.8,29.66,North,359,0.0,3.4,56,17.80,,---,0.00,VWS V13.01,2014-01-19 20:15:00,
2014-01-19 15:20:00,34.6,20.4,29.66,North,359,0.0,0.0,56,17.80,,---,0.00,VWS V13.01,2014-01-19 20:20:00,
2014-01-19 15:25:00,34.6,20.4,29.66,North,359,0.0,2.9,56,17.80,,---,0.00,VWS V13.01,2014-01-19 20:25:00,
2014-01-19 15:30:00,34.9,21.0,29.66,North,359,3.4,14.5,56,17.80,,---,0.00,VWS V13.01,2014-01-19 20:30:00,
2014-01-19 15:35:00,34.6,21.1,29.66,SW,225,10.7,11.2,57,17.80,,---,0.00,VWS V13.01,2014-01-19 20:35:00,
2014-01-19 15:40:00,35.1,21.4,29.66,SSW,197,0.0,4.2,57,17.80,,---,0.00,VWS V13.01,2014-01-19 20:40:00,
2014-01-19 15:45:00,35.5,21.4,29.66,North,359,0.0,4.5,56,17.80,,---,0.00,VWS V13.01,2014-01-19 20:45:00,
2014-01-19 15:50:00,35.6,21.1,29.66,North,359,0.0,0.0,55,17.80,,---,0.00,VWS V13.01,2014-01-19 20:50:00,
2014-01-19 15:55:00,35.3,20.8,29.66,North,359,5.1,6.8,55,17.80,,---,0.00,VWS V13.01,2014-01-19 20:55:00,
2014-01-19 16:00:00,35.6,21.2,29.67,North,359,0.0,0.0,55,17.80,,---,0.00,VWS V13.01,2014-01-19 21:00:00,
2014-01-19 16:05:00,35.0,20.9,29.67,North,359,0.0,17.0,56,17.80,,---,0.00,VWS V13.01,2014-01-19 21:05:00,
2014-01-19 16:10:00,35.2,21.5,29.67,North,359,6.2,17.2,57,17.80,,---,0.00,VWS V13.01,2014-01-19 21:10:00,
2014-01-19 16:15:00,35.0,20.7,29.66,North,359,0.0,4.6,56,17.80,,---,0.00,VWS V13.01,2014-01-19 21:15:00,
2014-01-19 16:20:00,34.4,20.8,29.66,North,359,15.4,17.0,57,17.80,,---,0.00,VWS V13.01,2014-01-19 21:20:00,
2014-01-19 16:25:00,34.2,20.7,29.66,SW,219,5.3,7.5,57,17.80,,---,0.00,VWS V13.01,2014-01-19 21:25:00,
2014-01-19 16:30:00,33.9,20.5,29.66,SW,226,14.4,14.4,58,17.80,,---,0.00,VWS V13.01,2014-01-19 21:30:00,
2014-01-19 16:35:00,34.1,20.8,29.66,North,359,0.0,3.2,58,17.80,,---,0.00,VWS V13.01,2014-01-19 21:35:00,
2014-01-19 16:40:00,33.9,20.7,29.66,North,359,2.3,8.6,58,17.80,,---,0.00,VWS V13.01,2014-01-19 21:40:00,
2014-01-19 16:45:00,33.6,20.5,29.66,North,359,13.7,15.4,58,17.80,,---,0.00,VWS V13.01,2014-01-19 21:45:00,
2014-01-19 16:50:00,33.8,20.8,29.66,North,359,7.1,11.2,59,17.80,,---,0.00,VWS V13.01,2014-01-19 21:50:00,
2014-01-19 16:55:00,33.8,21.1,29.66,WSW,246,3.0,9.8,59,17.80,,---,0.00,VWS V13.01,2014-01-19 21:55:00,
2014-01-19 17:00:00,33.5,20.7,29.66,West,270,0.0,14.9,59,17.80,,---,0.00,VWS V13.01,2014-01-19 22:00:00,
2014-01-19 17:05:00,33.6,20.8,29.66,North,359,0.0,0.0,59,17.80,,---,0.00,VWS V13.01,2014-01-19 22:05:00,
2014-01-19 17:10:00,33.6,20.9,29.66,North,359,0.0,0.0,59,17.80,,---,0.00,VWS V13.01,2014-01-19 22:10:00,
2014-01-19 17:15:00,33.6,21.0,29.67,SSW,201,8.2,10.5,59,17.80,,---,0.00,VWS V13.01,2014-01-19 22:15:00,
2014-01-19 17:20:00,33.6,21.0,29.67,North,359,0.0,13.2,60,17.80,,---,0.00,VWS V13.01,2014-01-19 22:20:00,
2014-01-19 17:25:00,33.6,21.0,29.67,North,359,0.0,8.0,60,17.80,,---,0.00,VWS V13.01,2014-01-19 22:25:00,
2014-01-19 17:30:00,33.5,21.0,29.68,North,359,0.0,0.0,60,17.80,,---,0.00,VWS V13.01,2014-01-19 22:30:00,
2014-01-19 17:35:00,33.7,21.4,29.68,North,359,0.0,7.9,60,17.80,,---,0.00,VWS V13.01,2014-01-19 22:35:00,
2014-01-19 17:40:00,33.6,21.5,29.68,WSW,245,4.5,6.1,61,17.80,,---,0.00,VWS V13.01,2014-01-19 22:40:00,
2014-01-19 17:45:00,33.6,21.6,29.68,SSW,193,4.7,10.4,61,17.80,,---,0.00,VWS V13.01,2014-01-19 22:45:00,
2014-01-19 17:50:00,33.3,21.4,29.68,North,359,5.7,8.8,61,17.80,,---,0.00,VWS V13.01,2014-01-19 22:50:00,
2014-01-19 17:55:00,33.3,21.6,29.68,North,359,0.0,9.7,62,17.80,,---,0.00,VWS V13.01,2014-01-19 22:55:00,
2014-01-19 18:00:00,33.4,21.8,29.68,SSW,197,6.8,6.8,62,17.80,,---,0.00,VWS V13.01,2014-01-19 23:00:00,
2014-01-19 18:05:00,33.3,21.7,29.69,North,359,0.0,3.3,62,17.80,,---,0.00,VWS V13.01,2014-01-19 23:05:00,
2014-01-19 18:10:00,33.4,21.7,29.69,North,359,0.0,0.0,62,17.80,,---,0.00,VWS V13.01,2014-01-19 23:10:00,
2014-01-19 18:15:00,33.5,22.0,29.68,North,359,6.5,7.2,62,17.80,,---,0.00,VWS V13.01,2014-01-19 23:15:00,
2014-01-19 18:20:00,33.3,21.9,29.68,SW,218,7.0,8.2,62,17.80,,---,0.00,VWS V13.01,2014-01-19 23:20:00,
2014-01-19 18:25:00,33.4,22.1,29.68,North,359,3.0,6.3,63,17.80,,---,0.00,VWS V13.01,2014-01-19 23:25:00,
2014-01-19 18:30:00,33.2,22.0,29.68,North,359,0.0,9.9,63,17.80,,---,0.00,VWS V13.01,2014-01-19 23:30:00,
2014-01-19 18:35:00,33.2,22.1,29.68,North,359,0.0,6.6,63,17.80,,---,0.00,VWS V13.01,2014-01-19 23:35:00,
2014-01-19 18:40:00,33.1,22.0,29.68,North,359,2.4,2.4,63,17.80,,---,0.00,VWS V13.01,2014-01-19 23:40:00,
2014-01-19 18:45:00,33.1,22.1,29.68,SW,215,0.0,6.0,64,17.80,,---,0.00,VWS V13.01,2014-01-19 23:45:00,
2014-01-19 18:50:00,33.0,22.1,29.68,North,359,0.0,0.0,64,17.80,,---,0.00,VWS V13.01,2014-01-19 23:50:00,
2014-01-19 18:55:00,32.9,22.1,29.67,North,359,0.0,0.0,64,17.80,,---,0.00,VWS V13.01,2014-01-19 23:55:00,
2014-01-19 19:00:00,32.7,21.9,29.68,North,359,0.0,0.0,64,17.80,,---,0.00,VWS V13.01,2014-01-20 00:00:00,
2014-01-19 19:05:00,32.8,22.0,29.68,North,359,0.0,0.0,64,17.80,,---,0.00,VWS V13.01,2014-01-20 00:05:00,
2014-01-19 19:10:00,32.7,22.0,29.67,North,359,0.0,0.0,64,17.80,,---,0.00,VWS V13.01,2014-01-20 00:10:00,
2014-01-19 19:15:00,32.8,22.1,29.68,North,359,0.0,0.0,64,17.80,,---,0.00,VWS V13.01,2014-01-20 00:15:00,
2014-01-19 19:20:00,32.8,22.2,29.68,North,359,0.0,0.0,64,17.80,,---,0.00,VWS V13.01,2014-01-20 00:20:00,
2014-01-19 19:25:00,32.9,22.1,29.67,North,359,0.0,0.0,64,17.80,,---,0.00,VWS V13.01,2014-01-20 00:25:00,
2014-01-19 19:30:00,33.0,22.3,29.67,North,359,0.0,2.2,64,17.80,,---,0.00,VWS V13.01,2014-01-20 00:30:00,
2014-01-19 19:35:00,33.2,22.6,29.67,North,359,0.0,4.3,65,17.80,,---,0.00,VWS V13.01,2014-01-20 00:35:00,
2014-01-19 19:40:00,33.1,22.6,29.67,South,184,0.0,5.2,65,17.80,,---,0.00,VWS V13.01,2014-01-20 00:40:00,
2014-01-19 19:45:00,33.0,22.6,29.67,SSW,204,0.0,0.0,65,17.80,,---,0.00,VWS V13.01,2014-01-20 00:45:00,
2014-01-19 19:50:00,33.1,22.7,29.67,North,359,0.0,5.0,65,17.80,,---,0.00,VWS V13.01,2014-01-20 00:50:00,
2014-01-19 19:55:00,33.1,22.7,29.67,North,359,0.0,0.0,65,17.80,,---,0.00,VWS V13.01,2014-01-20 00:55:00,
2014-01-19 20:00:00,33.1,22.8,29.67,North,359,0.0,0.0,66,17.80,,---,0.00,VWS V13.01,2014-01-20 01:00:00,
2014-01-19 20:05:00,33.2,22.9,29.67,North,359,0.0,0.0,66,17.80,,---,0.00,VWS V13.01,2014-01-20 01:05:00,
2014-01-19 20:10:00,33.2,22.9,29.67,North,359,0.0,0.0,66,17.80,,---,0.00,VWS V13.01,2014-01-20 01:10:00,
2014-01-19 20:15:00,33.2,22.9,29.66,North,359,0.0,0.0,65,17.80,,---,0.00,VWS V13.01,2014-01-20 01:15:00,
2014-01-19 20:20:00,33.0,22.7,29.67,SSW,193,3.5,4.7,66,17.80,,---,0.00,VWS V13.01,2014-01-20 01:20:00,
2014-01-19 20:25:00,33.1,22.9,29.66,SSW,195,0.0,0.0,66,17.80,,---,0.00,VWS V13.01,2014-01-20 01:25:00,
2014-01-19 20:30:00,33.0,22.9,29.67,SSW,195,0.0,0.0,66,17.80,,---,0.00,VWS V13.01,2014-01-20 01:30:00,
2014-01-19 20:35:00,32.8,22.9,29.66,SSW,195,0.0,0.0,66,17.80,,---,0.00,VWS V13.01,2014-01-20 01:35:00,
2014-01-19 20:40:00,32.5,22.7,29.67,SSW,195,0.0,0.0,67,17.80,,---,0.00,VWS V13.01,2014-01-20 01:40:00,
2014-01-19 20:45:00,32.4,22.7,29.66,SSW,195,0.0,0.0,67,17.80,,---,0.00,VWS V13.01,2014-01-20 01:45:00,
2014-01-19 20:50:00,32.6,23.0,29.66,SSE,165,3.0,6.8,67,17.80,,---,0.00,VWS V13.01,2014-01-20 01:50:00,
2014-01-19 20:55:00,32.7,23.0,29.66,SSE,156,0.0,0.0,67,17.80,,---,0.00,VWS V13.01,2014-01-20 01:55:00,
2014-01-19 21:00:00,33.0,23.2,29.66,West,267,0.0,0.0,67,17.80,,---,0.00,VWS V13.01,2014-01-20 02:00:00,
2014-01-19 21:05:00,33.1,23.3,29.66,West,267,0.0,0.0,67,17.80,,---,0.00,VWS V13.01,2014-01-20 02:05:00,
2014-01-19 21:10:00,33.3,23.4,29.66,North,359,0.0,0.0,66,17.80,,---,0.00,VWS V13.01,2014-01-20 02:10:00,
2014-01-19 21:15:00,33.5,23.7,29.67,North,359,0.0,0.0,67,17.80,,---,0.00,VWS V13.01,2014-01-20 02:15:00,
2014-01-19 21:20:00,33.6,23.5,29.67,North,359,0.0,5.5,66,17.80,,---,0.00,VWS V13.01,2014-01-20 02:20:00,
2014-01-19 21:25:00,33.7,23.4,29.67,North,359,0.0,3.3,66,17.80,,---,0.00,VWS V13.01,2014-01-20 02:25:00,
2014-01-19 21:30:00,34.1,23.6,29.67,North,359,0.0,0.0,65,17.80,,---,0.00,VWS V13.01,2014-01-20 02:30:00,
2014-01-19 21:35:00,34.1,23.5,29.67,North,359,0.0,0.0,65,17.80,,---,0.00,VWS V13.01,2014-01-20 02:35:00,
2014-01-19 21:40:00,34.1,23.2,29.67,SW,218,8.9,8.9,64,17.80,,---,0.00,VWS V13.01,2014-01-20 02:40:00,
2014-01-19 21:45:00,34.4,23.4,29.67,SSW,197,7.5,9.9,64,17.80,,---,0.00,VWS V13.01,2014-01-20 02:45:00,
2014-01-19 21:50:00,34.5,23.3,29.66,West,259,0.0,5.4,63,17.80,,---,0.00,VWS V13.01,2014-01-20 02:50:00,
2014-01-19 21:55:00,34.7,23.5,29.66,SSE,155,6.3,6.6,63,17.80,,---,0.00,VWS V13.01,2014-01-20 02:55:00,
2014-01-19 22:00:00,34.4,23.3,29.66,SSW,193,0.0,1.7,64,17.80,,---,0.00,VWS V13.01,2014-01-20 03:00:00,
2014-01-19 22:05:00,34.6,23.5,29.66,WSW,257,0.0,0.0,64,17.80,,---,0.00,VWS V13.01,2014-01-20 03:05:00,
2014-01-19 22:11:00,34.5,23.4,29.66,SW,221,7.5,7.5,63,17.80,,---,0.00,VWS V13.01,2014-01-20 03:11:00,
2014-01-19 22:16:00,34.6,23.4,29.66,SSW,195,0.0,0.0,63,17.80,,---,0.00,VWS V13.01,2014-01-20 03:16:00,
2014-01-19 22:21:00,34.4,23.2,29.66,SSW,195,0.0,0.0,63,17.80,,---,0.00,VWS V13.01,2014-01-20 03:21:00,
2014-01-19 22:26:00,34.4,23.4,29.66,SSW,195,0.0,0.0,64,17.80,,---,0.00,VWS V13.01,2014-01-20 03:26:00,
2014-01-19 22:31:00,34.1,23.2,29.66,SSW,195,0.0,0.0,64,17.80,,---,0.00,VWS V13.01,2014-01-20 03:31:00,
2014-01-19 22:36:00,34.0,23.2,29.66,SSW,195,0.0,0.0,64,17.80,,---,0.00,VWS V13.01,2014-01-20 03:36:00,
2014-01-19 22:41:00,34.0,23.2,29.66,SSW,195,0.0,0.0,64,17.80,,---,0.00,VWS V13.01,2014-01-20 03:41:00,
2014-01-19 22:46:00,33.9,23.2,29.66,SSW,195,0.0,0.0,64,17.80,,---,0.00,VWS V13.01,2014-01-20 03:46:00,
2014-01-19 22:51:00,33.8,23.2,29.66,SSW,195,0.0,0.0,65,17.80,,---,0.00,VWS V13.01,2014-01-20 03:51:00,
2014-01-19 23:59:00,31.4,22.8,29.65,WSW,252,0.0,0.0,70,17.80,,---,0.00,VWS V13.01,2014-01-20 04:59:00,